Time,TemperatureF,DewpointF,PressureIn,WindDirection,WindDirectionDegrees,WindSpeedMPH,WindSpeedGustMPH,Humidity,HourlyPrecipIn,Conditions,Clouds,dailyrainin,SoftwareType,DateUTC
2013-05-07 00:01:00,58.1,50.6,29.93,WSW,243,0.0,0.0,76,0.00,,---,0.00,VWS V14.01,2013-05-07 07:01:00,
2013-05-07 00:06:00,58.0,50.8,29.93,WSW,243,0.0,0.0,77,0.00,,---,0.00,VWS V14.01,2013-05-07 07:06:00,
2013-05-07 00:11:00,57.8,50.7,29.93,WSW,243,0.0,0.0,77,0.00,,---,0.00,VWS V14.01,2013-05-07 07:11:00,
2013-05-07 00:16:00,57.5,50.7,29.93,WSW,243,0.0,0.0,78,0.00,,---,0.00,VWS V14.01,2013-05-07 07:16:00,
2013-05-07 00:21:00,57.3,50.5,29.94,WSW,243,0.0,0.0,78,0.00,,---,0.00,VWS V14.01,2013-05-07 07:21:00,
2013-05-07 00:26:00,57.2,50.8,29.94,WSW,243,0.0,0.0,79,0.00,,---,0.00,VWS V14.01,2013-05-07 07:26:00,
2013-05-07 00:31:00,57.2,50.8,29.94,WSW,243,0.0,0.0,79,0.00,,---,0.00,VWS V14.01,2013-05-07 07:31:00,
2013-05-07 00:36:00,57.0,50.6,29.94,WSW,243,0.0,0.0,79,0.00,,---,0.00,VWS V14.01,2013-05-07 07:36:00,
2013-05-07 00:41:00,56.9,50.5,29.94,WSW,243,0.0,0.0,79,0.00,,---,0.00,VWS V14.01,2013-05-07 07:41:00,
2013-05-07 00:46:00,56.9,50.8,29.94,WSW,243,0.0,0.0,80,0.00,,---,0.00,VWS V14.01,2013-05-07 07:46:00,
2013-05-07 00:51:00,56.7,50.6,29.94,WSW,243,0.0,0.0,80,0.00,,---,0.00,VWS V14.01,2013-05-07 07:51:00,
2013-05-07 00:56:00,56.7,50.6,29.94,WSW,243,0.0,0.0,80,0.00,,---,0.00,VWS V14.01,2013-05-07 07:56:00,
2013-05-07 01:01:00,56.7,50.6,29.94,WSW,243,0.0,0.0,80,0.00,,---,0.00,VWS V14.01,2013-05-07 08:01:00,
2013-05-07 01:06:00,56.6,50.5,29.94,WSW,243,0.0,0.0,80,0.00,,---,0.00,VWS V14.01,2013-05-07 08:06:00,
2013-05-07 01:11:00,56.5,50.4,29.94,WSW,243,0.0,0.0,80,0.00,,---,0.00,VWS V14.01,2013-05-07 08:11:00,
2013-05-07 01:16:00,56.2,50.5,29.94,WSW,243,0.0,0.0,81,0.00,,---,0.00,VWS V14.01,2013-05-07 08:16:00,
2013-05-07 01:21:00,56.0,50.3,29.94,WSW,243,0.0,0.0,81,0.00,,---,0.00,VWS V14.01,2013-05-07 08:21:00,
2013-05-07 01:26:00,56.0,50.3,29.94,WSW,243,0.0,0.0,81,0.00,,---,0.00,VWS V14.01,2013-05-07 08:26:00,
2013-05-07 01:32:00,55.9,50.2,29.94,WSW,243,0.0,0.0,81,0.00,,---,0.00,VWS V14.01,2013-05-07 08:32:00,
2013-05-07 01:37:00,55.9,50.2,29.94,WSW,243,0.0,0.0,81,0.00,,---,0.00,VWS V14.01,2013-05-07 08:37:00,
2013-05-07 01:42:00,55.9,50.5,29.94,WSW,243,0.0,0.0,82,0.00,,---,0.00,VWS V14.01,2013-05-07 08:42:00,
2013-05-07 01:47:00,55.9,50.5,29.94,WSW,243,0.0,0.0,82,0.00,,---,0.00,VWS V14.01,2013-05-07 08:47:00,
2013-05-07 01:52:00,55.9,50.5,29.93,WSW,243,0.0,0.0,82,0.00,,---,0.00,VWS V14.01,2013-05-07 08:52:00,
2013-05-07 01:57:00,55.9,50.5,29.93,WSW,243,0.0,0.0,82,0.00,,---,0.00,VWS V14.01,2013-05-07 08:57:00,
2013-05-07 02:02:00,55.9,50.5,29.93,WSW,243,0.0,0.0,82,0.00,,---,0.00,VWS V14.01,2013-05-07 09:02:00,
2013-05-07 02:07:00,55.7,50.3,29.93,WSW,243,0.0,0.0,82,0.00,,---,0.00,VWS V14.01,2013-05-07 09:07:00,
2013-05-07 02:12:00,55.6,50.2,29.93,WSW,243,0.0,0.0,82,0.00,,---,0.00,VWS V14.01,2013-05-07 09:12:00,
2013-05-07 02:17:00,55.4,50.0,29.92,WSW,243,0.0,0.0,82,0.00,,---,0.00,VWS V14.01,2013-05-07 09:17:00,
2013-05-07 02:22:00,55.1,50.0,29.92,WSW,243,0.0,0.0,83,0.00,,---,0.00,VWS V14.01,2013-05-07 09:22:00,
2013-05-07 02:27:00,54.8,49.7,29.92,WSW,243,0.0,0.0,83,0.00,,---,0.00,VWS V14.01,2013-05-07 09:27:00,
2013-05-07 02:32:00,54.7,49.7,29.92,WSW,243,0.0,0.0,83,0.00,,---,0.00,VWS V14.01,2013-05-07 09:32:00,
2013-05-07 02:37:00,54.4,49.7,29.92,WSW,243,0.0,0.0,84,0.00,,---,0.00,VWS V14.01,2013-05-07 09:37:00,
2013-05-07 02:42:00,54.2,49.5,29.92,WSW,243,0.0,0.0,84,0.00,,---,0.00,VWS V14.01,2013-05-07 09:42:00,
2013-05-07 02:47:00,54.1,49.7,29.92,WSW,243,0.0,0.0,85,0.00,,---,0.00,VWS V14.01,2013-05-07 09:47:00,
2013-05-07 02:52:00,53.9,49.5,29.92,WSW,243,0.0,0.0,85,0.00,,---,0.00,VWS V14.01,2013-05-07 09:52:00,
2013-05-07 02:58:00,53.6,49.2,29.92,WSW,243,0.0,0.0,85,0.00,,---,0.00,VWS V14.01,2013-05-07 09:58:00,
2013-05-07 03:03:00,53.5,49.4,29.92,WSW,243,0.0,0.0,86,0.00,,---,0.00,VWS V14.01,2013-05-07 10:03:00,
2013-05-07 03:08:00,53.2,49.1,29.92,WSW,243,0.0,0.0,86,0.00,,---,0.00,VWS V14.01,2013-05-07 10:08:00,
2013-05-07 03:13:00,53.1,49.0,29.92,WSW,243,0.0,0.0,86,0.00,,---,0.00,VWS V14.01,2013-05-07 10:13:00,
2013-05-07 03:18:00,52.9,48.8,29.92,WSW,243,0.0,0.0,86,0.00,,---,0.00,VWS V14.01,2013-05-07 10:18:00,
2013-05-07 03:23:00,52.9,49.1,29.92,WSW,243,0.0,0.0,87,0.00,,---,0.00,VWS V14.01,2013-05-07 10:23:00,
2013-05-07 03:28:00,52.8,49.0,29.92,WSW,243,0.0,0.0,87,0.00,,---,0.00,VWS V14.01,2013-05-07 10:28:00,
2013-05-07 03:33:00,52.6,48.8,29.92,WSW,243,0.0,0.0,87,0.00,,---,0.00,VWS V14.01,2013-05-07 10:33:00,
2013-05-07 03:38:00,52.5,48.8,29.92,WSW,243,0.0,0.0,87,0.00,,---,0.00,VWS V14.01,2013-05-07 10:38:00,
2013-05-07 03:43:00,52.3,48.5,29.92,WSW,243,0.0,0.0,87,0.00,,---,0.00,VWS V14.01,2013-05-07 10:43:00,
2013-05-07 03:48:00,52.2,48.5,29.92,WSW,243,0.0,0.0,87,0.00,,---,0.00,VWS V14.01,2013-05-07 10:48:00,
2013-05-07 03:53:00,52.0,48.6,29.92,WSW,243,0.0,0.0,88,0.00,,---,0.00,VWS V14.01,2013-05-07 10:53:00,
2013-05-07 03:58:00,51.9,48.5,29.92,WSW,243,0.0,0.0,88,0.00,,---,0.00,VWS V14.01,2013-05-07 10:58:00,
2013-05-07 04:03:00,51.7,48.3,29.92,WSW,243,0.0,0.0,88,0.00,,---,0.00,VWS V14.01,2013-05-07 11:03:00,
2013-05-07 04:08:00,51.4,48.0,29.92,WSW,243,0.0,0.0,88,0.00,,---,0.00,VWS V14.01,2013-05-07 11:08:00,
2013-05-07 04:13:00,51.3,48.2,29.92,WSW,243,0.0,0.0,89,0.00,,---,0.00,VWS V14.01,2013-05-07 11:13:00,
2013-05-07 04:19:00,51.3,48.2,29.92,WSW,243,0.0,0.0,89,0.00,,---,0.00,VWS V14.01,2013-05-07 11:19:00,
2013-05-07 04:24:00,51.1,48.0,29.92,WSW,243,0.0,0.0,89,0.00,,---,0.00,VWS V14.01,2013-05-07 11:24:00,
2013-05-07 04:29:00,51.1,48.0,29.92,WSW,243,0.0,0.0,89,0.00,,---,0.00,VWS V14.01,2013-05-07 11:29:00,
2013-05-07 04:34:00,51.0,48.2,29.92,WSW,243,0.0,0.0,90,0.00,,---,0.00,VWS V14.01,2013-05-07 11:34:00,
2013-05-07 04:39:00,51.0,48.2,29.92,WSW,243,0.0,0.0,90,0.00,,---,0.00,VWS V14.01,2013-05-07 11:39:00,
2013-05-07 04:44:00,50.8,48.0,29.92,WSW,243,0.0,0.0,90,0.00,,---,0.00,VWS V14.01,2013-05-07 11:44:00,
2013-05-07 04:49:00,50.5,47.7,29.92,WSW,243,0.0,0.0,90,0.00,,---,0.00,VWS V14.01,2013-05-07 11:49:00,
2013-05-07 04:54:00,50.4,47.6,29.92,WSW,243,0.0,0.0,90,0.00,,---,0.00,VWS V14.01,2013-05-07 11:54:00,
2013-05-07 04:59:00,50.2,47.4,29.92,WSW,243,0.0,0.0,90,0.00,,---,0.00,VWS V14.01,2013-05-07 11:59:00,
2013-05-07 05:04:00,50.1,47.6,29.92,WSW,243,0.0,0.0,91,0.00,,---,0.00,VWS V14.01,2013-05-07 12:04:00,
2013-05-07 05:09:00,50.1,47.6,29.92,WSW,243,0.0,0.0,91,0.00,,---,0.00,VWS V14.01,2013-05-07 12:09:00,
2013-05-07 05:14:00,50.1,47.6,29.92,WSW,243,0.0,0.0,91,0.00,,---,0.00,VWS V14.01,2013-05-07 12:14:00,
2013-05-07 05:19:00,50.2,47.7,29.93,WSW,243,0.0,0.0,91,0.00,,---,0.00,VWS V14.01,2013-05-07 12:19:00,
2013-05-07 05:24:00,50.2,47.7,29.93,WSW,243,0.0,0.0,91,0.00,,---,0.00,VWS V14.01,2013-05-07 12:24:00,
2013-05-07 05:29:00,50.1,47.6,29.93,WSW,243,0.0,0.0,91,0.00,,---,0.00,VWS V14.01,2013-05-07 12:29:00,
2013-05-07 05:34:00,49.9,47.7,29.94,WSW,243,0.0,0.0,92,0.00,,---,0.00,VWS V14.01,2013-05-07 12:34:00,
2013-05-07 05:40:00,49.9,47.7,29.94,WSW,243,0.0,0.0,92,0.00,,---,0.00,VWS V14.01,2013-05-07 12:40:00,
2013-05-07 05:45:00,49.8,47.6,29.94,WSW,243,0.0,0.0,92,0.00,,---,0.00,VWS V14.01,2013-05-07 12:45:00,
2013-05-07 05:50:00,49.8,47.6,29.94,WSW,243,0.0,0.0,92,0.00,,---,0.00,VWS V14.01,2013-05-07 12:50:00,
2013-05-07 05:55:00,49.8,47.6,29.94,WSW,243,0.0,0.0,92,0.00,,---,0.00,VWS V14.01,2013-05-07 12:55:00,
2013-05-07 06:00:00,49.6,47.4,29.94,WSW,243,0.0,0.0,92,0.00,,---,0.00,VWS V14.01,2013-05-07 13:00:00,
2013-05-07 06:05:00,49.6,47.4,29.94,WSW,243,0.0,0.0,92,0.00,,---,0.00,VWS V14.01,2013-05-07 13:05:00,
2013-05-07 06:10:00,49.6,47.4,29.94,WSW,243,0.0,0.0,92,0.00,,---,0.00,VWS V14.01,2013-05-07 13:10:00,
2013-05-07 06:15:00,49.6,47.4,29.94,WSW,243,0.0,0.0,92,0.00,,---,0.00,VWS V14.01,2013-05-07 13:15:00,
2013-05-07 06:20:00,49.8,47.6,29.94,West,262,0.0,0.0,92,0.00,,---,0.00,VWS V14.01,2013-05-07 13:20:00,
2013-05-07 06:25:00,49.8,47.6,29.94,SW,221,0.0,0.0,92,0.00,,---,0.00,VWS V14.01,2013-05-07 13:25:00,
2013-05-07 06:30:00,49.6,47.4,29.94,SW,221,0.0,0.0,92,0.00,,---,0.00,VWS V14.01,2013-05-07 13:30:00,
2013-05-07 06:35:00,49.8,47.6,29.94,SW,221,0.0,0.0,92,0.00,,---,0.00,VWS V14.01,2013-05-07 13:35:00,
2013-05-07 06:40:00,49.9,47.7,29.94,SW,221,0.0,0.0,92,0.00,,---,0.00,VWS V14.01,2013-05-07 13:40:00,
2013-05-07 06:45:00,50.1,47.9,29.94,SW,221,0.0,0.0,92,0.00,,---,0.00,VWS V14.01,2013-05-07 13:45:00,
2013-05-07 06:50:00,50.4,48.5,29.94,SW,221,0.0,0.0,93,0.00,,---,0.00,VWS V14.01,2013-05-07 13:50:00,
2013-05-07 06:55:00,50.5,48.3,29.94,SW,221,0.0,0.0,92,0.00,,---,0.00,VWS V14.01,2013-05-07 13:55:00,
2013-05-07 07:00:00,50.7,48.5,29.94,SW,221,0.0,0.0,92,0.00,,---,0.00,VWS V14.01,2013-05-07 14:00:00,
2013-05-07 07:05:00,51.1,49.2,29.95,SW,221,0.0,0.0,93,0.00,,---,0.00,VWS V14.01,2013-05-07 14:05:00,
2013-05-07 07:10:00,51.3,49.1,29.95,WSW,257,0.0,0.0,92,0.00,,---,0.00,VWS V14.01,2013-05-07 14:10:00,
2013-05-07 07:16:00,51.6,49.4,29.95,WSW,250,0.0,0.0,92,0.00,,---,0.00,VWS V14.01,2013-05-07 14:16:00,
2013-05-07 07:21:00,51.7,49.5,29.95,SW,235,0.0,0.0,92,0.00,,---,0.00,VWS V14.01,2013-05-07 14:21:00,
2013-05-07 07:26:00,51.9,49.7,29.95,SW,235,0.0,0.0,92,0.00,,---,0.00,VWS V14.01,2013-05-07 14:26:00,
2013-05-07 07:31:00,52.0,49.8,29.95,SW,235,0.0,0.0,92,0.00,,---,0.00,VWS V14.01,2013-05-07 14:31:00,
2013-05-07 07:36:00,52.2,50.0,29.96,SW,235,0.0,0.0,92,0.00,,---,0.00,VWS V14.01,2013-05-07 14:36:00,
2013-05-07 07:41:00,52.3,49.8,29.96,SW,235,0.0,0.0,91,0.00,,---,0.00,VWS V14.01,2013-05-07 14:41:00,
2013-05-07 07:46:00,52.6,50.0,29.96,SW,235,0.0,0.0,91,0.00,,---,0.00,VWS V14.01,2013-05-07 14:46:00,
2013-05-07 07:51:00,52.9,50.0,29.96,SW,235,0.0,0.0,90,0.00,,---,0.00,VWS V14.01,2013-05-07 14:51:00,
2013-05-07 07:56:00,53.2,50.3,29.96,SW,235,0.0,0.0,90,0.00,,---,0.00,VWS V14.01,2013-05-07 14:56:00,
2013-05-07 08:01:00,53.8,50.6,29.96,SW,235,0.0,0.0,89,0.00,,---,0.00,VWS V14.01,2013-05-07 15:01:00,
2013-05-07 08:06:00,54.4,51.2,29.97,SW,235,0.0,0.0,89,0.00,,---,0.00,VWS V14.01,2013-05-07 15:06:00,
2013-05-07 08:11:00,54.8,51.3,29.97,SW,235,0.0,0.0,88,0.00,,---,0.00,VWS V14.01,2013-05-07 15:11:00,
2013-05-07 08:16:00,55.3,51.5,29.97,SW,235,0.0,0.0,87,0.00,,---,0.00,VWS V14.01,2013-05-07 15:16:00,
2013-05-07 08:21:00,55.7,51.6,29.97,SW,235,0.0,0.0,86,0.00,,---,0.00,VWS V14.01,2013-05-07 15:21:00,
2013-05-07 08:26:00,56.2,51.8,29.97,SW,235,0.0,0.0,85,0.00,,---,0.00,VWS V14.01,2013-05-07 15:26:00,
2013-05-07 08:31:00,56.7,51.9,29.97,SW,235,0.0,0.0,84,0.00,,---,0.00,VWS V14.01,2013-05-07 15:31:00,
2013-05-07 08:36:00,57.3,52.2,29.97,SW,235,0.0,0.0,83,0.00,,---,0.00,VWS V14.01,2013-05-07 15:36:00,
2013-05-07 08:41:00,58.0,52.5,29.97,SW,235,0.0,0.0,82,0.00,,---,0.00,VWS V14.01,2013-05-07 15:41:00,
2013-05-07 08:46:00,58.6,52.5,29.97,SW,235,0.0,0.0,80,0.00,,---,0.00,VWS V14.01,2013-05-07 15:46:00,
2013-05-07 08:52:00,59.2,52.7,29.97,SW,235,0.0,0.0,79,0.00,,---,0.00,VWS V14.01,2013-05-07 15:52:00,
2013-05-07 08:57:00,59.9,52.7,29.97,SW,235,0.0,0.0,77,0.00,,---,0.00,VWS V14.01,2013-05-07 15:57:00,
2013-05-07 09:02:00,61.2,52.1,29.97,SW,235,0.0,0.0,72,0.00,,---,0.00,VWS V14.01,2013-05-07 16:02:00,
2013-05-07 09:07:00,62.1,51.4,29.98,WSW,238,0.0,0.0,68,0.00,,---,0.00,VWS V14.01,2013-05-07 16:07:00,
2013-05-07 09:12:00,62.9,52.2,29.98,WSW,249,0.0,0.0,68,0.00,,---,0.00,VWS V14.01,2013-05-07 16:12:00,
2013-05-07 09:17:00,63.5,52.0,29.98,WSW,252,0.0,0.0,66,0.00,,---,0.00,VWS V14.01,2013-05-07 16:17:00,
2013-05-07 09:22:00,64.2,52.2,29.98,NNW,344,0.0,1.0,65,0.00,,---,0.00,VWS V14.01,2013-05-07 16:22:00,
2013-05-07 09:27:00,64.7,51.8,29.98,NW,304,0.0,1.0,63,0.00,,---,0.00,VWS V14.01,2013-05-07 16:27:00,
2013-05-07 09:32:00,65.3,52.0,29.98,SW,219,0.0,1.0,62,0.00,,---,0.00,VWS V14.01,2013-05-07 16:32:00,
2013-05-07 09:37:00,65.5,52.2,29.98,West,271,0.0,3.0,62,0.00,,---,0.00,VWS V14.01,2013-05-07 16:37:00,
2013-05-07 09:42:00,65.8,52.0,29.98,West,271,0.0,3.0,61,0.00,,---,0.00,VWS V14.01,2013-05-07 16:42:00,
2013-05-07 09:47:00,66.0,51.7,29.98,NW,316,0.0,3.0,60,0.00,,---,0.00,VWS V14.01,2013-05-07 16:47:00,
2013-05-07 09:52:00,66.4,51.7,29.98,WSW,256,1.0,4.0,59,0.00,,---,0.00,VWS V14.01,2013-05-07 16:52:00,
2013-05-07 09:57:00,66.9,52.1,29.98,North,350,0.0,4.0,59,0.00,,---,0.00,VWS V14.01,2013-05-07 16:57:00,
2013-05-07 10:02:00,67.1,52.3,29.98,North,350,0.0,4.0,59,0.00,,---,0.00,VWS V14.01,2013-05-07 17:02:00,
2013-05-07 10:07:00,67.6,52.3,29.98,North,355,0.0,3.0,58,0.00,,---,0.00,VWS V14.01,2013-05-07 17:07:00,
2013-05-07 10:12:00,67.9,53.1,29.98,NNW,336,0.0,5.0,59,0.00,,---,0.00,VWS V14.01,2013-05-07 17:12:00,
2013-05-07 10:18:00,68.6,52.3,29.97,North,10,0.0,5.0,56,0.00,,---,0.00,VWS V14.01,2013-05-07 17:18:00,
2013-05-07 10:23:00,68.4,52.6,29.97,NNW,342,0.0,5.0,57,0.00,,---,0.00,VWS V14.01,2013-05-07 17:23:00,
2013-05-07 10:28:00,69.1,52.3,29.97,West,269,0.0,5.0,55,0.00,,---,0.00,VWS V14.01,2013-05-07 17:28:00,
2013-05-07 10:33:00,69.4,52.5,29.97,West,273,4.0,5.0,55,0.00,,---,0.00,VWS V14.01,2013-05-07 17:33:00,
2013-05-07 10:38:00,69.3,52.5,29.97,West,259,0.0,3.0,55,0.00,,---,0.00,VWS V14.01,2013-05-07 17:38:00,
2013-05-07 10:43:00,68.9,52.1,29.97,NW,321,0.0,3.0,55,0.00,,---,0.00,VWS V14.01,2013-05-07 17:43:00,
2013-05-07 10:48:00,68.8,52.5,29.97,West,264,1.0,3.0,56,0.00,,---,0.00,VWS V14.01,2013-05-07 17:48:00,
2013-05-07 10:53:00,68.6,51.8,29.97,SSW,198,0.0,3.0,55,0.00,,---,0.00,VWS V14.01,2013-05-07 17:53:00,
2013-05-07 10:58:00,68.3,52.0,29.97,North,349,2.0,4.0,56,0.00,,---,0.00,VWS V14.01,2013-05-07 17:58:00,
2013-05-07 11:03:00,68.6,51.8,29.97,North,351,0.0,6.0,55,0.00,,---,0.00,VWS V14.01,2013-05-07 18:03:00,
2013-05-07 11:08:00,68.4,51.1,29.97,NE,53,0.0,4.0,54,0.00,,---,0.00,VWS V14.01,2013-05-07 18:08:00,
2013-05-07 11:13:00,68.4,52.1,29.97,West,269,0.0,4.0,56,0.00,,---,0.00,VWS V14.01,2013-05-07 18:13:00,
2013-05-07 11:18:00,68.8,52.5,29.98,West,262,2.0,7.0,56,0.00,,---,0.00,VWS V14.01,2013-05-07 18:18:00,
2013-05-07 11:23:00,69.3,53.0,29.98,West,277,4.0,7.0,56,0.00,,---,0.00,VWS V14.01,2013-05-07 18:23:00,
2013-05-07 11:28:00,69.8,52.9,29.98,WNW,283,1.0,7.0,55,0.00,,---,0.00,VWS V14.01,2013-05-07 18:28:00,
2013-05-07 11:33:00,70.6,54.2,29.98,West,259,5.0,7.0,56,0.00,,---,0.00,VWS V14.01,2013-05-07 18:33:00,
2013-05-07 11:38:00,70.3,54.4,29.98,WSW,246,4.0,8.0,57,0.00,,---,0.00,VWS V14.01,2013-05-07 18:38:00,
2013-05-07 11:43:00,70.1,54.2,29.98,West,261,0.0,8.0,57,0.00,,---,0.00,VWS V14.01,2013-05-07 18:43:00,
2013-05-07 11:48:00,70.4,54.0,29.98,WSW,253,1.0,8.0,56,0.00,,---,0.00,VWS V14.01,2013-05-07 18:48:00,
2013-05-07 11:53:00,70.9,53.4,29.98,WNW,287,0.0,8.0,54,0.00,,---,0.00,VWS V14.01,2013-05-07 18:53:00,
2013-05-07 11:58:00,70.8,52.8,29.98,WNW,294,0.0,8.0,53,0.00,,---,0.00,VWS V14.01,2013-05-07 18:58:00,
2013-05-07 12:03:00,70.3,53.4,29.98,WSW,244,0.0,0.0,55,0.00,,---,0.00,VWS V14.01,2013-05-07 19:03:00,
2013-05-07 12:08:00,69.9,53.5,29.98,West,266,3.0,5.0,56,0.00,,---,0.00,VWS V14.01,2013-05-07 19:08:00,
2013-05-07 12:14:00,69.4,53.0,29.98,West,273,0.0,6.0,56,0.00,,---,0.00,VWS V14.01,2013-05-07 19:14:00,
2013-05-07 12:19:00,69.3,52.5,29.98,WNW,296,3.0,6.0,55,0.00,,---,0.00,VWS V14.01,2013-05-07 19:19:00,
2013-05-07 12:24:00,69.3,53.0,29.98,WNW,290,1.0,6.0,56,0.00,,---,0.00,VWS V14.01,2013-05-07 19:24:00,
2013-05-07 12:29:00,69.6,53.2,29.98,WSW,248,9.0,9.0,56,0.00,,---,0.00,VWS V14.01,2013-05-07 19:29:00,
2013-05-07 12:34:00,70.1,52.7,29.98,WNW,283,4.0,4.0,54,0.00,,---,0.00,VWS V14.01,2013-05-07 19:34:00,
2013-05-07 12:39:00,70.6,52.7,29.98,West,260,6.0,9.0,53,0.00,,---,0.00,VWS V14.01,2013-05-07 19:39:00,
2013-05-07 12:44:00,70.4,52.5,29.98,West,261,4.0,9.0,53,0.00,,---,0.00,VWS V14.01,2013-05-07 19:44:00,
2013-05-07 12:49:00,70.3,52.9,29.98,WNW,289,1.0,10.0,54,0.00,,---,0.00,VWS V14.01,2013-05-07 19:49:00,
2013-05-07 12:54:00,69.9,51.5,29.98,NNW,344,3.0,10.0,52,0.00,,---,0.00,VWS V14.01,2013-05-07 19:54:00,
2013-05-07 12:59:00,70.3,51.9,29.98,West,260,2.0,10.0,52,0.00,,---,0.00,VWS V14.01,2013-05-07 19:59:00,
2013-05-07 13:04:00,71.1,52.1,29.98,WSW,238,0.0,6.0,51,0.00,,---,0.00,VWS V14.01,2013-05-07 20:04:00,
2013-05-07 13:09:00,72.0,52.4,29.98,NNW,331,0.0,8.0,50,0.00,,---,0.00,VWS V14.01,2013-05-07 20:09:00,
2013-05-07 13:14:00,72.7,52.5,29.98,West,259,5.0,11.0,49,0.00,,---,0.00,VWS V14.01,2013-05-07 20:14:00,
2013-05-07 13:19:00,72.0,52.9,29.97,WSW,243,6.0,12.0,51,0.00,,---,0.00,VWS V14.01,2013-05-07 20:19:00,
2013-05-07 13:24:00,71.5,52.4,29.97,SW,221,1.0,12.0,51,0.00,,---,0.00,VWS V14.01,2013-05-07 20:24:00,
2013-05-07 13:29:00,72.0,52.4,29.97,WSW,237,3.0,12.0,50,0.00,,---,0.00,VWS V14.01,2013-05-07 20:29:00,
2013-05-07 13:34:00,72.1,52.5,29.97,WSW,243,3.0,6.0,50,0.00,,---,0.00,VWS V14.01,2013-05-07 20:34:00,
2013-05-07 13:39:00,72.0,52.4,29.97,SW,229,5.0,12.0,50,0.00,,---,0.00,VWS V14.01,2013-05-07 20:39:00,
2013-05-07 13:44:00,72.3,52.6,29.97,WSW,258,2.0,12.0,50,0.00,,---,0.00,VWS V14.01,2013-05-07 20:44:00,
2013-05-07 13:49:00,72.7,53.0,29.97,SW,234,0.0,12.0,50,0.00,,---,0.00,VWS V14.01,2013-05-07 20:49:00,
2013-05-07 13:54:00,73.0,53.3,29.97,WSW,254,8.0,12.0,50,0.00,,---,0.00,VWS V14.01,2013-05-07 20:54:00,
2013-05-07 13:59:00,72.8,53.1,29.97,West,281,4.0,12.0,50,0.00,,---,0.00,VWS V14.01,2013-05-07 20:59:00,
2013-05-07 14:04:00,72.3,53.7,29.97,West,274,4.0,9.0,52,0.00,,---,0.00,VWS V14.01,2013-05-07 21:04:00,
2013-05-07 14:09:00,72.1,53.5,29.97,West,261,6.0,12.0,52,0.00,,---,0.00,VWS V14.01,2013-05-07 21:09:00,
2013-05-07 14:14:00,72.0,53.4,29.97,WSW,245,5.0,12.0,52,0.00,,---,0.00,VWS V14.01,2013-05-07 21:14:00,
2013-05-07 14:19:00,72.0,53.4,29.97,WNW,300,1.0,12.0,52,0.00,,---,0.00,VWS V14.01,2013-05-07 21:19:00,
2013-05-07 14:25:00,72.3,53.2,29.97,West,267,8.0,12.0,51,0.00,,---,0.00,VWS V14.01,2013-05-07 21:25:00,
2013-05-07 14:30:00,72.3,53.7,29.97,WNW,285,3.0,12.0,52,0.00,,---,0.00,VWS V14.01,2013-05-07 21:30:00,
2013-05-07 14:35:00,72.0,52.4,29.97,WSW,256,0.0,6.0,50,0.00,,---,0.00,VWS V14.01,2013-05-07 21:35:00,
2013-05-07 14:40:00,72.0,52.4,29.97,WNW,288,3.0,7.0,50,0.00,,---,0.00,VWS V14.01,2013-05-07 21:40:00,
2013-05-07 14:45:00,72.0,51.8,29.97,WSW,252,0.0,7.0,49,0.00,,---,0.00,VWS V14.01,2013-05-07 21:45:00,
2013-05-07 14:50:00,72.0,51.8,29.97,WSW,252,0.0,7.0,49,0.00,,---,0.00,VWS V14.01,2013-05-07 21:50:00,
2013-05-07 14:55:00,72.5,52.3,29.97,WNW,286,3.0,13.0,49,0.00,,---,0.00,VWS V14.01,2013-05-07 21:55:00,
2013-05-07 15:00:00,72.7,52.5,29.97,West,259,4.0,13.0,49,0.00,,---,0.00,VWS V14.01,2013-05-07 22:00:00,
2013-05-07 15:05:00,72.7,53.0,29.97,NNW,329,1.0,4.0,50,0.00,,---,0.00,VWS V14.01,2013-05-07 22:05:00,
2013-05-07 15:10:00,72.1,51.9,29.97,WNW,300,0.0,8.0,49,0.00,,---,0.00,VWS V14.01,2013-05-07 22:10:00,
2013-05-07 15:15:00,71.6,52.5,29.97,North,11,2.0,8.0,51,0.00,,---,0.00,VWS V14.01,2013-05-07 22:15:00,
2013-05-07 15:20:00,71.5,52.4,29.96,West,273,6.0,8.0,51,0.00,,---,0.00,VWS V14.01,2013-05-07 22:20:00,
2013-05-07 15:25:00,72.0,52.9,29.96,WNW,286,5.0,8.0,51,0.00,,---,0.00,VWS V14.01,2013-05-07 22:25:00,
2013-05-07 15:30:00,72.5,50.6,29.96,WSW,251,0.0,9.0,46,0.00,,---,0.00,VWS V14.01,2013-05-07 22:30:00,
2013-05-07 15:35:00,72.3,51.0,29.96,WSW,253,4.0,12.0,47,0.00,,---,0.00,VWS V14.01,2013-05-07 22:35:00,
2013-05-07 15:40:00,72.0,51.8,29.96,WNW,302,3.0,12.0,49,0.00,,---,0.00,VWS V14.01,2013-05-07 22:40:00,
2013-05-07 15:45:00,72.3,51.0,29.96,WNW,290,0.0,12.0,47,0.00,,---,0.00,VWS V14.01,2013-05-07 22:45:00,
2013-05-07 15:50:00,72.3,52.1,29.95,WSW,239,7.0,12.0,49,0.00,,---,0.00,VWS V14.01,2013-05-07 22:50:00,
2013-05-07 15:55:00,71.5,51.9,29.95,WSW,256,9.0,12.0,50,0.00,,---,0.00,VWS V14.01,2013-05-07 22:55:00,
2013-05-07 16:00:00,70.9,51.9,29.95,WSW,250,6.0,12.0,51,0.00,,---,0.00,VWS V14.01,2013-05-07 23:00:00,
2013-05-07 16:05:00,71.1,52.6,29.95,WSW,254,0.0,9.0,52,0.00,,---,0.00,VWS V14.01,2013-05-07 23:05:00,
2013-05-07 16:11:00,70.6,52.1,29.95,SSW,202,5.0,12.0,52,0.00,,---,0.00,VWS V14.01,2013-05-07 23:11:00,
2013-05-07 16:16:00,69.4,52.0,29.95,SW,225,8.0,12.0,54,0.00,,---,0.00,VWS V14.01,2013-05-07 23:16:00,
2013-05-07 16:21:00,69.1,51.8,29.96,WSW,239,5.0,15.0,54,0.00,,---,0.00,VWS V14.01,2013-05-07 23:21:00,
2013-05-07 16:26:00,68.4,52.1,29.96,WNW,288,7.0,16.0,56,0.00,,---,0.00,VWS V14.01,2013-05-07 23:26:00,
2013-05-07 16:31:00,68.4,53.1,29.96,SW,226,5.0,16.0,58,0.00,,---,0.00,VWS V14.01,2013-05-07 23:31:00,
2013-05-07 16:36:00,68.9,52.6,29.96,SSW,212,4.0,9.0,56,0.00,,---,0.00,VWS V14.01,2013-05-07 23:36:00,
2013-05-07 16:41:00,68.8,52.5,29.96,WNW,290,3.0,11.0,56,0.00,,---,0.00,VWS V14.01,2013-05-07 23:41:00,
2013-05-07 16:46:00,68.6,52.8,29.96,West,279,5.0,11.0,57,0.00,,---,0.00,VWS V14.01,2013-05-07 23:46:00,
2013-05-07 16:51:00,68.1,52.8,29.97,WSW,250,7.0,11.0,58,0.00,,---,0.00,VWS V14.01,2013-05-07 23:51:00,
2013-05-07 16:56:00,67.6,54.1,29.97,West,270,5.0,11.0,62,0.00,,---,0.00,VWS V14.01,2013-05-07 23:56:00,
2013-05-07 17:01:00,67.4,53.9,29.97,WNW,300,7.0,11.0,62,0.00,,---,0.00,VWS V14.01,2013-05-08 00:01:00,
2013-05-07 17:06:00,67.4,53.9,29.97,WNW,282,3.0,8.0,62,0.00,,---,0.00,VWS V14.01,2013-05-08 00:06:00,
2013-05-07 17:11:00,67.3,54.3,29.97,NW,323,0.0,10.0,63,0.00,,---,0.00,VWS V14.01,2013-05-08 00:11:00,
2013-05-07 17:16:00,66.6,53.6,29.97,West,259,1.0,10.0,63,0.00,,---,0.00,VWS V14.01,2013-05-08 00:16:00,
2013-05-07 17:21:00,66.4,53.0,29.97,WNW,283,6.0,10.0,62,0.00,,---,0.00,VWS V14.01,2013-05-08 00:21:00,
2013-05-07 17:26:00,66.3,53.3,29.97,West,260,3.0,10.0,63,0.00,,---,0.00,VWS V14.01,2013-05-08 00:26:00,
2013-05-07 17:31:00,65.6,53.1,29.97,WNW,286,7.0,11.0,64,0.00,,---,0.00,VWS V14.01,2013-05-08 00:31:00,
2013-05-07 17:36:00,65.3,53.2,29.98,WSW,240,0.0,8.0,65,0.00,,---,0.00,VWS V14.01,2013-05-08 00:36:00,
2013-05-07 17:41:00,65.3,53.7,29.98,West,268,3.0,8.0,66,0.00,,---,0.00,VWS V14.01,2013-05-08 00:41:00,
2013-05-07 17:46:00,65.2,53.2,29.98,West,268,5.0,9.0,65,0.00,,---,0.00,VWS V14.01,2013-05-08 00:46:00,
2013-05-07 17:51:00,64.7,53.1,29.98,WSW,258,7.0,10.0,66,0.00,,---,0.00,VWS V14.01,2013-05-08 00:51:00,
2013-05-07 17:56:00,64.3,53.1,29.98,NNW,327,1.0,10.0,67,0.00,,---,0.00,VWS V14.01,2013-05-08 00:56:00,
2013-05-07 18:02:00,64.2,52.6,29.98,WSW,252,4.0,10.0,66,0.00,,---,0.00,VWS V14.01,2013-05-08 01:02:00,
2013-05-07 18:07:00,63.7,52.5,29.98,West,260,7.0,11.0,67,0.00,,---,0.00,VWS V14.01,2013-05-08 01:07:00,
2013-05-07 18:12:00,63.1,52.4,29.98,WSW,255,7.0,13.0,68,0.00,,---,0.00,VWS V14.01,2013-05-08 01:12:00,
2013-05-07 18:17:00,62.9,53.0,29.98,West,281,7.0,13.0,70,0.00,,---,0.00,VWS V14.01,2013-05-08 01:17:00,
2013-05-07 18:22:00,62.6,52.7,29.99,WNW,282,5.0,13.0,70,0.00,,---,0.00,VWS V14.01,2013-05-08 01:22:00,
2013-05-07 18:27:00,62.4,52.5,29.99,West,261,3.0,13.0,70,0.00,,---,0.00,VWS V14.01,2013-05-08 01:27:00,
2013-05-07 18:32:00,62.1,52.6,29.99,WSW,237,5.0,13.0,71,0.00,,---,0.00,VWS V14.01,2013-05-08 01:32:00,
2013-05-07 18:37:00,62.0,52.5,29.99,West,264,4.0,10.0,71,0.00,,---,0.00,VWS V14.01,2013-05-08 01:37:00,
2013-05-07 18:42:00,61.8,52.7,29.99,WSW,254,5.0,10.0,72,0.00,,---,0.00,VWS V14.01,2013-05-08 01:42:00,
2013-05-07 18:47:00,61.5,52.4,29.99,West,279,3.0,10.0,72,0.00,,---,0.00,VWS V14.01,2013-05-08 01:47:00,
2013-05-07 18:52:00,61.3,52.6,29.99,WSW,247,3.0,10.0,73,0.00,,---,0.00,VWS V14.01,2013-05-08 01:52:00,
2013-05-07 18:57:00,61.0,52.7,29.99,West,266,6.0,10.0,74,0.00,,---,0.00,VWS V14.01,2013-05-08 01:57:00,
2013-05-07 19:02:00,60.7,52.4,29.99,WNW,287,5.0,10.0,74,0.00,,---,0.00,VWS V14.01,2013-05-08 02:02:00,
2013-05-07 19:07:00,60.5,52.5,29.99,WSW,255,7.0,8.0,75,0.00,,---,0.00,VWS V14.01,2013-05-08 02:07:00,
2013-05-07 19:13:00,60.4,52.5,29.99,WSW,250,6.0,8.0,75,0.00,,---,0.00,VWS V14.01,2013-05-08 02:13:00,
2013-05-07 19:18:00,60.1,52.5,29.99,WSW,239,4.0,8.0,76,0.00,,---,0.00,VWS V14.01,2013-05-08 02:18:00,
2013-05-07 19:23:00,59.9,52.3,29.99,SW,232,7.0,8.0,76,0.00,,---,0.00,VWS V14.01,2013-05-08 02:23:00,
2013-05-07 19:28:00,59.8,52.2,29.99,WSW,254,2.0,8.0,76,0.00,,---,0.00,VWS V14.01,2013-05-08 02:28:00,
2013-05-07 19:33:00,59.6,52.4,29.99,West,272,5.0,8.0,77,0.00,,---,0.00,VWS V14.01,2013-05-08 02:33:00,
2013-05-07 19:38:00,59.6,52.4,29.99,West,259,1.0,5.0,77,0.00,,---,0.00,VWS V14.01,2013-05-08 02:38:00,
2013-05-07 19:43:00,59.5,52.3,29.99,WSW,256,0.0,5.0,77,0.00,,---,0.00,VWS V14.01,2013-05-08 02:43:00,
2013-05-07 19:48:00,59.2,52.0,30.00,SW,220,0.0,5.0,77,0.00,,---,0.00,VWS V14.01,2013-05-08 02:48:00,
2013-05-07 19:53:00,59.0,51.8,30.00,SSW,203,0.0,6.0,77,0.00,,---,0.00,VWS V14.01,2013-05-08 02:53:00,
2013-05-07 19:58:00,58.9,51.7,30.00,SSW,204,0.0,6.0,77,0.00,,---,0.00,VWS V14.01,2013-05-08 02:58:00,
2013-05-07 20:03:00,58.9,52.1,30.00,SSW,207,0.0,6.0,78,0.00,,---,0.00,VWS V14.01,2013-05-08 03:03:00,
2013-05-07 20:08:00,58.6,51.8,30.00,SSW,211,1.0,4.0,78,0.00,,---,0.00,VWS V14.01,2013-05-08 03:08:00,
2013-05-07 20:13:00,58.3,52.2,30.00,WSW,248,0.0,5.0,80,0.00,,---,0.00,VWS V14.01,2013-05-08 03:13:00,
2013-05-07 20:18:00,58.0,51.9,30.00,SSW,194,0.0,5.0,80,0.00,,---,0.00,VWS V14.01,2013-05-08 03:18:00,
2013-05-07 20:23:00,57.8,51.7,30.00,West,267,0.0,5.0,80,0.00,,---,0.00,VWS V14.01,2013-05-08 03:23:00,
2013-05-07 20:28:00,57.6,51.8,30.00,West,263,0.0,5.0,81,0.00,,---,0.00,VWS V14.01,2013-05-08 03:28:00,
2013-05-07 20:33:00,57.3,51.9,30.00,West,262,0.0,5.0,82,0.00,,---,0.00,VWS V14.01,2013-05-08 03:33:00,
2013-05-07 20:38:00,57.2,51.8,30.00,West,262,0.0,0.0,82,0.00,,---,0.00,VWS V14.01,2013-05-08 03:38:00,
2013-05-07 20:43:00,56.9,51.8,30.00,West,262,0.0,0.0,83,0.00,,---,0.00,VWS V14.01,2013-05-08 03:43:00,
2013-05-07 20:48:00,56.7,51.6,30.01,West,262,0.0,0.0,83,0.00,,---,0.00,VWS V14.01,2013-05-08 03:48:00,
2013-05-07 20:53:00,56.6,51.5,30.01,West,262,0.0,0.0,83,0.00,,---,0.00,VWS V14.01,2013-05-08 03:53:00,
2013-05-07 20:59:00,56.3,51.2,30.01,West,262,0.0,0.0,83,0.00,,---,0.00,VWS V14.01,2013-05-08 03:59:00,
2013-05-07 21:01:00,56.2,51.4,30.01,West,262,0.0,0.0,84,0.00,,---,0.00,VWS V14.01,2013-05-08 04:01:00,
2013-05-07 21:02:00,56.2,51.4,30.01,West,262,0.0,0.0,84,0.00,,---,0.00,VWS V14.01,2013-05-08 04:02:00,
2013-05-07 21:07:00,56.0,51.2,30.01,West,262,0.0,0.0,84,0.00,,---,0.00,VWS V14.01,2013-05-08 04:07:00,
2013-05-07 21:12:00,55.9,51.5,30.01,West,263,0.0,0.0,85,0.00,,---,0.00,VWS V14.01,2013-05-08 04:12:00,
2013-05-07 21:17:00,55.6,51.2,30.01,West,263,0.0,0.0,85,0.00,,---,0.00,VWS V14.01,2013-05-08 04:17:00,
2013-05-07 21:22:00,55.4,51.3,30.02,West,263,0.0,0.0,86,0.00,,---,0.00,VWS V14.01,2013-05-08 04:22:00,
2013-05-07 21:27:00,55.1,51.0,30.02,West,263,0.0,0.0,86,0.00,,---,0.00,VWS V14.01,2013-05-08 04:27:00,
2013-05-07 21:32:00,54.7,51.2,30.02,West,263,0.0,0.0,88,0.00,,---,0.00,VWS V14.01,2013-05-08 04:32:00,
2013-05-07 21:37:00,54.5,51.0,30.02,West,263,0.0,0.0,88,0.00,,---,0.00,VWS V14.01,2013-05-08 04:37:00,
2013-05-07 21:42:00,54.4,51.2,30.02,West,263,0.0,0.0,89,0.00,,---,0.00,VWS V14.01,2013-05-08 04:42:00,
2013-05-07 21:47:00,54.2,51.0,30.02,West,263,0.0,0.0,89,0.00,,---,0.00,VWS V14.01,2013-05-08 04:47:00,
2013-05-07 21:52:00,53.9,50.7,30.02,SW,230,4.0,5.0,89,0.00,,---,0.00,VWS V14.01,2013-05-08 04:52:00,
2013-05-07 21:57:00,53.6,50.4,30.02,SW,233,0.0,5.0,89,0.00,,---,0.00,VWS V14.01,2013-05-08 04:57:00,
2013-05-07 22:02:00,53.5,50.6,30.02,SSW,210,0.0,5.0,90,0.00,,---,0.00,VWS V14.01,2013-05-08 05:02:00,
2013-05-07 22:07:00,53.5,50.9,30.03,SSW,210,0.0,0.0,91,0.00,,---,0.00,VWS V14.01,2013-05-08 05:07:00,
2013-05-07 22:13:00,53.5,50.9,30.03,SSW,210,0.0,1.0,91,0.00,,---,0.00,VWS V14.01,2013-05-08 05:13:00,
2013-05-07 22:18:00,53.5,51.2,30.03,SW,219,1.0,4.0,92,0.00,,---,0.00,VWS V14.01,2013-05-08 05:18:00,
2013-05-07 22:23:00,53.5,51.2,30.03,WSW,257,0.0,4.0,92,0.00,,---,0.00,VWS V14.01,2013-05-08 05:23:00,
2013-05-07 22:28:00,53.3,51.0,30.03,WSW,255,4.0,4.0,92,0.00,,---,0.00,VWS V14.01,2013-05-08 05:28:00,
2013-05-07 22:33:00,53.3,51.0,30.03,WSW,255,0.0,4.0,92,0.00,,---,0.00,VWS V14.01,2013-05-08 05:33:00,
2013-05-07 22:38:00,53.3,51.0,30.03,WSW,256,0.0,2.0,92,0.00,,---,0.00,VWS V14.01,2013-05-08 05:38:00,
2013-05-07 22:43:00,53.2,50.9,30.03,WSW,256,0.0,3.0,92,0.00,,---,0.00,VWS V14.01,2013-05-08 05:43:00,
2013-05-07 22:48:00,53.1,51.1,30.03,WSW,256,0.0,3.0,93,0.00,,---,0.00,VWS V14.01,2013-05-08 05:48:00,
2013-05-07 22:53:00,52.9,50.9,30.03,WSW,256,0.0,3.0,93,0.00,,---,0.00,VWS V14.01,2013-05-08 05:53:00,
2013-05-07 22:58:00,52.9,50.9,30.03,WSW,256,0.0,5.0,93,0.00,,---,0.00,VWS V14.01,2013-05-08 05:58:00,
2013-05-07 23:03:00,52.8,51.1,30.03,SW,221,0.0,5.0,94,0.00,,---,0.00,VWS V14.01,2013-05-08 06:03:00,
2013-05-07 23:08:00,52.8,51.0,30.03,SW,217,0.0,-999.0,94,-99.99,,,0.00,weatherlink.com 1.10,2013-05-08 06:08:00,
2013-05-07 23:13:00,52.6,50.9,30.03,SW,217,0.0,3.0,94,0.00,,---,0.00,VWS V14.01,2013-05-08 06:13:00,
2013-05-07 23:18:00,52.6,50.9,30.03,SW,217,0.0,3.0,94,0.00,,---,0.00,VWS V14.01,2013-05-08 06:18:00,
2013-05-07 23:23:00,52.6,50.9,30.03,SW,217,0.0,3.0,94,0.00,,---,0.00,VWS V14.01,2013-05-08 06:23:00,
2013-05-07 23:28:00,52.6,50.9,30.03,SW,217,0.0,3.0,94,0.00,,---,0.00,VWS V14.01,2013-05-08 06:28:00,
2013-05-07 23:34:00,52.8,51.4,30.03,SW,217,0.0,0.0,95,0.00,,---,0.00,VWS V14.01,2013-05-08 06:34:00,
2013-05-07 23:39:00,52.8,51.4,30.03,SW,217,0.0,0.0,95,0.00,,---,0.00,VWS V14.01,2013-05-08 06:39:00,
2013-05-07 23:44:00,52.9,51.5,30.03,SW,217,0.0,0.0,95,0.00,,---,0.00,VWS V14.01,2013-05-08 06:44:00,
2013-05-07 23:49:00,52.8,51.4,30.03,SW,217,0.0,0.0,95,0.00,,---,0.00,VWS V14.01,2013-05-08 06:49:00,
2013-05-07 23:54:00,52.9,51.5,30.03,West,260,1.0,2.0,95,0.00,,---,0.00,VWS V14.01,2013-05-08 06:54:00,
2013-05-07 23:59:00,52.8,51.4,30.03,West,260,0.0,2.0,95,0.00,,---,0.00,VWS V14.01,2013-05-08 06:59:00,